Dewpoint
60 61 62 61 60 60 60 61 62 62 63 64 64 64 63 63 63 62 62 62 61 58
51 53 55 59 63 62 62 61 62 63 63 63 63 63 64 63 62 62 63 63 63 62
45 49 50 50 51 54 58 61 64 64 63 64 64 64 64 63 63 62 62 63 63 63
43 42 44 47 49 51 51 52 54 58 62 64 64 65 64 64 63 62 62 63 63 64
43 42 43 43 43 46 48 51 51 51 54 57 60 61 62 63 64 63 63 63 64 64
42 42 41 42 44 45 44 44 48 50 50 50 49 52 55 57 59 61 62 62 62 62
39 40 40 41 41 42 44 45 44 45 47 49 49 47 49 50 52 54 56 58 60 62
38 38 39 40 40 41 42 43 45 45 44 46 47 44 43 42 46 50 51 55 56 57
37 37 38 39 40 40 42 42 42 43 44 45 45 43 43 42 43 44 46 45 46 50
36 37 39 39 39 39 41 42 41 41 42 42 44 43 43 42 42 42 43 44 43 42
32 33 37 37 37 41 39 40 41 41 41 41 41 40 40 40 42 42 43 45 45 44
32 32 33 37 38 39 39 40 42 39 39 40 40 40 39 40 41 43 43 46 46 46
31 32 32 33 35 37 36 36 37 37 37 38 37 38 38 40 40 40 42 42 43 44
30 30 30 31 33 34 34 34 34 34 35 35 36 38 38 39 40 40 40 41 44 46
Wind_Speed
17 16 20 19 18 16 18 21 22 21 17 18 20 22 22 21 22 23 24 25 24 21
25 24 18 20 14 8 12 15 12 22 23 23 23 23 21 22 23 23 24 24 24 22
24 22 21 21 22 20 17 15 18 7 18 21 22 23 23 22 23 24 22 22 23 23
21 21 19 19 17 15 16 17 17 15 13 11 22 21 21 22 21 23 24 23 24 26
18 19 20 18 20 15 18 15 15 16 16 14 10 9 6 8 19 25 23 24 25 23
20 20 20 20 19 18 18 17 15 13 14 13 13 13 9 9 9 8 12 13 14 17
18 17 17 17 18 18 18 16 18 16 15 12 9 9 11 10 10 9 9 10 14 18
16 16 15 16 16 15 17 17 17 15 15 13 13 8 12 11 12 15 10 9 10 12
16 16 16 17 16 16 15 16 18 19 16 15 13 6 8 11 11 13 15 10 9 9
17 18 17 17 18 19 19 17 16 16 16 16 16 9 12 10 13 15 13 14 13 13
18 18 15 15 17 15 18 17 16 17 15 16 14 19 15 13 14 15 16 16 13 13
18 19 18 15 13 15 17 17 16 17 18 16 16 18 22 18 15 14 18 17 16 13
21 21 20 19 18 17 18 18 18 20 19 21 21 18 16 15 15 17 16 17 19 16
18 19 20 21 19 19 20 20 20 21 20 21 21 19 16 9 15 16 16 14 14 13
Wind_Direction
357 234 221 233 230 237 219 208 216 225 224 230 232 225 224 223 221 221 223 223 223 228
30 30 17 8 2 289 261 264 227 200 201 214 230 235 228 229 227 225 223 224 223 224
28 27 26 32 27 18 1 352 359 263 204 214 220 224 224 229 232 232 227 224 223 224
27 24 20 23 24 10 17 16 18 3 350 267 236 234 223 225 229 229 231 227 224 224
25 26 25 13 17 5 13 4 13 12 15 20 12 7 354 281 239 235 234 233 230 233
15 15 13 13 11 13 6 2 5 358 20 5 10 14 19 4 338 314 289 267 254 242
6 4 5 3 5 5 2 360 2 358 353 352 351 6 357 6 336 328 317 314 306 292
355 352 360 356 357 357 360 353 353 357 351 346 342 360 1 342 346 313 302 288 281 276
345 347 349 350 346 349 356 350 346 347 341 347 331 331 349 354 316 312 301 297 295 290
339 338 341 342 349 345 342 341 335 327 331 328 328 348 341 319 327 307 302 299 300 296
338 330 329 335 334 330 328 328 326 323 314 312 312 320 336 330 313 303 293 285 287 285
333 327 328 329 335 326 323 322 316 314 315 313 309 317 312 310 311 303 290 282 278 273
331 329 328 328 323 330 325 322 319 315 314 312 305 307 316 310 304 295 295 296 291 290
325 326 324 323 326 326 323 317 314 311 309 309 306 309 328 349 325 301 296 297 295 294